CAPE
5 3 4 2 2 4 6 2 1 1 3 2 3 4 2 1 0 0 0 0 0 0 0 0 42 20 0 0 0 0 0 4 5 200 43 22 4 29 3 0 2 13 18 28 0 0 0
3 4 3 1 5 3 5 4 1 1 3 5 3 4 3 0 0 0 0 0 0 0 0 17 46 0 0 0 0 0 0 0 0 2 8 2 24 11 14 1 2 52 44 27 0 0 0
5 4 5 6 1 6 6 4 5 3 5 3 4 3 2 1 0 0 0 0 0 0 0 0 9 0 0 0 0 0 0 0 0 0 7 1 1 29 10 4 3 29 33 14 0 0 0
4 1 2 2 2 6 6 5 5 7 3 3 4 4 1 1 0 0 0 0 0 0 0 0 0 0 0 0 0 0 0 0 0 0 4 13 12 5 10 7 20 35 25 7 0 0 0
5 6 4 4 5 6 6 5 5 6 6 3 3 3 2 0 0 0 0 0 0 0 0 0 0 0 0 0 0 0 0 0 0 0 8 15 22 30 30 1 20 1 0 0 0 0 2
5 5 5 5 5 7 6 4 5 5 5 5 1 2 2 1 0 0 0 0 0 0 0 0 0 0 0 0 0 0 0 0 9 17 19 24 28 12 12 9 3 0 0 0 0 0 6
6 5 4 6 5 9 6 3 2 4 4 6 3 1 1 1 0 0 0 0 0 0 0 0 0 0 0 0 0 0 0 0 0 0 0 0 0 0 0 0 0 0 0 0 0 0 2
5 1 4 6 6 6 4 2 1 1 2 5 4 1 0 0 0 0 0 0 0 0 0 0 0 0 0 0 0 0 0 0 0 0 0 0 0 0 0 0 0 0 0 0 0 0 0
3 1 7 5 3 3 2 1 0 0 0 5 4 1 0 0 0 0 0 0 0 0 0 0 0 0 0 0 0 0 0 0 0 0 0 0 0 0 0 0 0 0 0 0 0 0 0
3 4 7 2 1 1 1 1 0 0 0 5 4 1 0 0 0 0 0 0 0 0 0 0 0 0 0 0 0 0 0 0 0 0 0 0 0 0 0 0 0 0 0 0 0 0 7
3 2 4 1 1 0 0 0 0 0 0 0 3 0 0 0 0 0 0 0 0 0 0 0 0 0 0 0 0 0 0 0 0 0 0 0 0 0 0 0 0 0 0 0 0 0 5
0 2 2 0 0 0 0 0 0 0 0 1 1 0 0 0 0 0 0 0 0 0 0 0 0 0 0 0 0 0 0 0 0 0 0 0 0 0 0 0 0 0 0 0 0 0 14
0 0 0 0 0 0 0 0 0 0 0 0 1 0 0 0 0 0 0 0 0 0 0 0 0 0 0 0 0 0 0 0 0 0 0 0 0 0 0 0 0 0 0 4 4 3 0
0 0 0 0 0 0 0 0 0 0 0 0 0 0 0 0 0 0 0 0 0 0 0 0 0 0 0 0 0 0 0 0 0 0 0 0 0 0 0 0 0 0 0 0 0 0 0
8 0 0 0 0 0 0 0 0 0 0 0 0 0 0 0 0 0 0 0 0 0 0 0 0 0 0 0 0 0 0 0 0 0 0 0 0 0 0 0 0 0 0 0 0 0 0
7 2 0 0 0 0 0 0 0 0 0 0 0 0 0 0 0 0 0 0 0 0 0 0 0 0 0 0 0 0 0 0 0 0 0 0 0 0 0 0 0 0 0 0 0 0 0
11 6 0 0 0 0 0 0 0 0 0 0 0 0 0 0 0 0 0 0 0 0 0 0 0 0 0 0 0 0 0 0 0 0 0 0 0 0 0 0 0 0 0 0 0 0 0
12 10 5 1 0 0 0 0 0 0 0 0 0 0 0 0 0 0 0 0 0 0 0 0 0 0 0 0 0 0 0 0 0 0 0 0 0 0 0 0 0 0 0 0 0 0 0
15 14 9 3 0 0 0 0 0 0 0 0 0 0 0 0 0 0 0 0 0 0 0 0 0 0 0 0 0 0 0 0 0 0 0 0 0 0 0 0 0 0 0 0 0 0 0
16 11 11 10 0 0 0 0 0 0 0 0 0 0 0 0 0 0 0 0 0 0 0 0 0 0 0 0 0 0 0 0 0 0 0 0 0 0 0 0 0 0 0 0 0 0 0
16 13 12 14 3 0 0 0 0 0 0 0 0 0 0 0 0 0 0 0 0 0 0 0 0 0 0 0 0 0 0 0 0 0 0 0 0 0 0 0 0 0 0 0 0 0 0
12 14 17 14 4 0 0 0 0 0 0 0 0 0 0 0 0 0 0 0 0 0 0 0 0 0 0 0 0 0 0 0 0 0 0 0 0 0 0 0 0 0 0 0 0 0 0
3 7 17 19 8 0 0 0 0 0 0 0 0 0 0 0 0 0 0 0 0 0 0 0 0 0 0 0 0 0 0 0 0 0 0 0 0 0 0 0 0 0 0 0 0 0 0
2 10 17 19 10 4 0 0 0 0 0 0 0 0 0 0 0 0 0 0 0 0 0 0 0 0 0 0 0 0 0 0 0 0 0 0 0 0 0 0 0 0 0 0 0 0 0
10 21 20 20 13 11 0 0 0 0 0 0 0 0 0 0 0 0 0 0 0 0 0 0 0 0 0 0 0 0 0 0 0 0 0 0 0 0 0 0 0 0 0 0 0 0 0
2 13 21 27 20 10 0 0 0 0 0 0 0 0 0 0 0 0 0 0 0 0 0 0 0 0 0 0 0 0 0 0 0 0 0 0 0 0 0 0 0 0 0 0 0 0 0
6 6 30 29 25 12 2 0 0 0 0 0 0 0 0 0 0 0 0 0 0 0 0 0 0 0 0 0 0 0 0 0 0 0 0 0 0 0 0 0 0 0 0 0 0 0 0
17 20 28 50 35 23 9 0 0 0 0 0 0 0 0 0 0 0 0 0 0 0 0 0 0 0 0 0 0 0 0 0 0 0 0 0 0 0 0 0 0 0 0 0 0 0 0
15 14 67 40 15 1 1 0 0 0 0 0 0 0 0 0 0 0 0 0 0 0 0 0 0 0 0 0 0 0 0 0 0 0 0 0 0 0 0 0 0 0 0 0 0 0 0
CIN
0 0 0 0 0 0 0 0 0 -1 0 0 0 0 0 0 0 0 0 0 0 0 0 0 -31 -27 0 0 0 0 0 -6 -63 -16 -17 -17 -16 -5 -6 0 -19 -18 -20 -24 0 0 0
0 0 0 -1 0 0 0 0 0 0 0 0 0 0 0 0 0 0 0 0 0 0 0 -61 -41 0 0 0 0 0 0 0 0 -20 -38 -25 -13 -25 -10 -18 -13 -19 -23 -40 -23 0 0
0 0 0 0 0 0 0 0 0 0 0 0 0 0 0 0 0 0 0 0 0 0 0 -1 -67 0 0 0 0 0 0 0 0 0 -47 -55 -55 -13 -17 -14 -45 -9 0 -15 0 0 0
0 0 0 0 0 0 0 0 0 0 0 0 0 0 0 0 0 0 0 0 0 0 0 0 0 0 0 0 0 0 0 0 0 0 -58 -78 -69 -48 -27 -37 -9 -22 -3 0 0 0 0
0 0 0 0 0 0 0 0 0 0 0 0 0 0 0 0 0 0 0 0 0 0 0 0 0 0 0 0 0 0 0 0 0 -9 -39 -32 -32 -12 -7 -4 -2 -6 0 0 0 0 -120
0 0 0 0 0 0 0 0 0 0 0 0 0 0 0 0 0 0 0 0 0 0 0 0 0 0 0 0 0 0 0 0 -23 -25 -13 -8 -4 0 0 -1 -4 0 0 0 0 0 -216
0 0 0 0 0 0 0 0 0 0 0 0 0 0 0 0 0 0 0 0 0 0 0 0 0 0 0 0 0 0 0 0 0 0 0 0 0 0 0 0 0 0 0 0 0 0 -173
0 -1 0 0 0 0 0 0 0 0 0 0 0 0 0 0 0 0 0 0 0 0 0 0 0 0 0 0 0 0 0 0 0 0 0 0 0 0 0 0 0 0 0 0 0 0 0
0 -1 0 0 0 0 0 0 0 0 0 0 0 0 0 0 0 0 0 0 0 0 0 0 0 0 0 0 0 0 0 0 0 0 0 0 0 0 0 0 0 0 0 0 0 0 0
0 0 0 0 0 0 0 0 0 0 0 0 0 0 0 0 0 0 0 0 0 0 0 0 0 0 0 0 0 0 0 0 0 0 0 0 0 0 0 0 0 0 0 0 0 0 -34
0 0 0 0 0 0 0 0 0 0 0 0 0 0 0 0 0 0 0 0 0 0 0 0 0 0 0 0 0 0 0 0 0 0 0 0 0 0 0 0 0 0 0 0 0 0 -10
0 0 0 0 0 0 0 0 0 0 0 0 0 0 0 0 0 0 0 0 0 0 0 0 0 0 0 0 0 0 0 0 0 0 0 0 0 0 0 0 0 0 0 0 0 0 -15
0 0 0 0 0 0 0 0 0 0 0 0 0 0 0 0 0 0 0 0 0 0 0 0 0 0 0 0 0 0 0 0 0 0 0 0 0 0 0 0 0 0 0 -10 -4 -4 0
0 0 0 0 0 0 0 0 0 0 0 0 0 0 0 0 0 0 0 0 0 0 0 0 0 0 0 0 0 0 0 0 0 0 0 0 0 0 0 0 0 0 0 0 -1 0 0
0 0 0 0 0 0 0 0 0 0 0 0 0 0 0 0 0 0 0 0 0 0 0 0 0 0 0 0 0 0 0 0 0 0 0 0 0 0 0 0 0 0 0 0 0 0 0
0 -1 0 0 0 0 0 0 0 0 0 0 0 0 0 0 0 0 0 0 0 0 0 0 0 0 0 0 0 0 0 0 0 0 0 0 0 0 0 0 0 0 0 0 0 0 -4
0 -1 0 0 0 0 0 0 0 0 0 0 0 0 0 0 0 0 0 0 0 0 0 0 0 0 0 0 0 0 0 0 0 0 0 0 0 0 0 0 0 0 0 0 0 0 0
-1 -1 -1 0 0 0 0 0 0 0 0 0 0 0 0 0 0 0 0 0 0 0 0 0 0 0 0 0 0 0 0 0 0 0 0 0 0 0 0 0 0 0 0 0 0 0 0
-1 0 -1 -2 0 0 0 0 0 0 0 0 0 0 0 0 0 0 0 0 0 0 0 0 0 0 0 0 0 0 0 0 0 0 0 0 0 0 0 0 0 0 0 0 0 0 0
-2 -1 -1 -3 0 0 0 0 0 0 0 0 0 0 0 0 0 0 0 0 0 0 0 0 0 0 0 0 0 0 0 0 0 0 0 0 0 0 0 0 0 0 0 0 0 0 0
-2 -2 -3 -3 -6 0 0 0 0 0 0 0 0 0 0 0 0 0 0 0 0 0 0 0 0 0 0 0 0 0 0 0 0 0 0 0 0 0 0 0 0 0 0 0 0 0 0
-3 -3 -5 -4 -7 0 0 0 0 0 0 0 0 0 0 0 0 0 0 0 0 0 0 0 0 0 0 0 0 0 0 0 0 0 0 0 0 0 0 0 0 0 0 0 0 0 0
-5 -8 -6 -4 -6 -2 0 0 0 0 0 0 0 0 0 0 0 0 0 0 0 0 0 0 0 0 0 0 0 0 0 0 0 0 0 0 0 0 0 0 0 0 0 0 0 0 0
-7 -12 -11 -8 -9 -8 0 0 0 0 0 0 0 0 0 0 0 0 0 0 0 0 0 0 0 0 0 0 0 0 0 0 0 0 0 0 0 0 0 0 0 0 0 0 0 0 0
-4 -11 -13 -11 -10 -9 0 0 0 0 0 0 0 0 0 0 0 0 0 0 0 0 0 0 0 0 0 0 0 0 0 0 0 0 0 0 0 0 0 0 0 0 0 0 0 0 0
-7 -11 -10 -11 -11 -10 -6 0 0 0 0 0 0 0 0 0 0 0 0 0 0 0 0 0 0 0 0 0 0 0 0 0 0 0 0 0 0 0 0 0 0 0 0 0 0 0 0
-16 -15 -11 -11 -12 -13 -13 -17 0 0 0 0 0 0 0 0 0 0 0 0 0 0 0 0 0 0 0 0 0 0 0 0 0 0 0 0 0 0 0 0 0 0 0 0 0 0 0
-11 -19 -20 -9 -7 -14 -17 0 0 0 0 0 0 0 0 0 0 0 0 0 0 0 0 0 0 0 0 0 0 0 0 0 0 0 0 0 0 0 0 0 0 0 0 0 0 0 0
0 0 -2 -4 -13 -2 -4 0 0 0 0 0 0 0 0 0 0 0 0 0 0 0 0 0 0 0 0 0 0 0 0 0 0 0 0 0 0 0 0 0 0 0 0 0 0 0 0
Wind_Speed
10 11 11 11 11 12 13 13 13 11 10 10 10 10 10 11 11 11 12 12 12 9 8 8 9 11 2 5 3 5 12 11 3 5 3 3 2 4 5 1 2 1 5 6 9 10 6
10 11 11 11 11 12 13 13 13 13 11 11 10 10 10 10 11 11 12 13 11 8 6 6 8 8 4 4 4 5 7 6 4 2 0 4 5 4 1 4 2 1 4 9 9 2 6
10 10 11 11 12 13 13 14 14 14 12 11 11 10 10 11 11 12 12 12 11 8 5 4 5 2 2 3 2 6 6 3 3 2 2 1 1 3 5 2 1 4 6 6 8 4 6
9 9 10 11 11 12 13 13 14 14 14 13 12 12 11 10 11 12 12 12 10 9 5 2 3 1 4 3 1 6 5 2 4 4 3 3 2 3 2 2 3 5 7 4 7 8 3
9 10 10 10 12 13 13 14 14 15 15 14 13 12 12 11 10 11 12 13 11 7 5 3 1 1 5 5 3 4 1 2 3 3 3 4 2 3 3 2 0 3 3 5 1 7 4
10 10 11 11 12 13 14 14 15 15 16 15 13 12 13 12 11 11 12 7 5 3 3 2 1 3 5 5 4 4 3 2 2 3 1 1 3 3 1 1 2 4 1 3 3 4 3
11 11 12 12 13 14 14 15 16 17 17 17 14 13 12 12 11 9 6 3 6 4 7 3 1 2 6 7 1 2 3 5 0 2 2 4 3 4 8 9 6 4 4 2 2 4 6
11 12 12 13 14 14 15 16 17 17 18 18 16 13 11 11 11 6 2 4 4 4 2 3 3 4 5 0 4 2 0 2 3 3 3 3 3 4 5 6 8 2 3 1 2 3 5
11 13 13 14 14 15 16 16 17 18 19 19 16 14 11 10 9 3 3 4 1 2 3 4 4 3 6 1 3 5 2 1 2 5 3 1 5 7 3 6 8 3 1 3 4 3 7
10 12 14 14 15 15 15 16 17 18 18 17 17 14 10 11 4 1 2 1 0 1 6 7 4 2 0 1 4 4 1 1 3 3 4 3 7 4 5 4 4 2 4 1 4 4 4
8 11 13 14 15 15 16 16 17 18 17 16 16 13 11 4 4 2 1 1 2 4 6 5 6 1 1 1 5 3 1 1 2 4 4 6 8 6 5 2 2 5 3 4 4 4 5
7 10 12 14 15 16 16 16 17 17 17 17 15 12 7 3 3 1 2 3 4 9 4 5 3 6 6 2 2 5 3 3 1 3 3 2 4 2 3 4 2 5 3 7 5 4 4
7 10 11 13 15 15 15 16 16 17 18 17 15 9 2 1 1 2 2 3 7 7 3 5 3 5 2 3 5 6 5 6 4 6 6 6 4 5 2 4 4 6 7 4 5 5 5
9 10 12 13 14 14 14 15 16 17 18 17 13 4 4 2 2 3 3 6 7 4 5 3 3 3 3 3 1 6 4 6 2 3 2 4 9 3 4 3 0 4 5 6 3 2 4
9 9 11 13 14 13 14 15 16 17 18 18 4 2 2 2 2 3 6 6 8 6 2 4 4 2 4 3 1 3 2 2 2 3 2 2 4 1 2 1 4 1 2 2 6 1 3
11 9 11 12 14 13 13 15 15 17 17 13 2 2 2 1 3 5 5 4 3 3 2 1 2 0 1 4 3 3 2 2 2 1 2 1 4 1 3 1 3 2 5 3 3 2 3
13 11 11 12 11 12 11 13 15 16 18 3 3 3 2 2 3 5 3 4 4 3 2 4 2 3 3 2 1 2 2 2 1 3 1 2 2 6 2 2 3 4 2 4 3 4 4
15 12 13 12 11 11 10 10 12 14 16 6 2 2 2 2 4 1 2 4 1 3 2 2 2 3 3 1 2 1 3 4 3 1 1 1 3 4 4 2 0 1 1 2 4 2 1
16 15 14 12 11 10 10 9 10 11 8 1 2 2 1 3 0 2 3 3 3 4 4 3 3 5 2 3 2 3 2 1 2 2 2 0 1 4 8 5 1 2 1 2 3 3 4
18 16 16 14 12 11 10 9 9 9 8 3 2 2 4 4 1 4 2 4 3 3 3 4 3 1 1 2 4 3 2 1 2 1 3 2 1 5 6 4 1 4 2 3 4 1 1
20 20 18 15 12 12 11 9 7 8 7 2 2 3 3 2 2 1 2 2 3 3 3 4 2 5 5 4 2 3 2 3 1 2 2 2 3 2 6 7 3 5 6 4 6 5 5
20 20 18 16 14 12 11 10 8 6 3 2 4 4 1 1 1 2 2 4 6 3 5 4 4 2 6 4 3 4 1 2 3 1 1 1 3 3 5 0 2 5 7 7 5 4 8
22 21 20 18 16 14 12 10 9 5 4 1 1 2 4 2 1 3 5 5 3 3 3 2 6 2 3 5 3 2 2 1 1 1 1 0 0 2 6 4 7 6 6 8 5 4 6
24 22 21 19 17 15 13 11 9 7 4 3 3 3 4 4 4 6 3 5 4 3 3 1 3 3 1 1 1 2 2 3 3 3 3 3 1 2 5 5 3 5 3 5 7 6 8
24 22 22 20 18 16 14 12 10 8 6 2 3 4 4 3 3 3 6 5 0 0 2 3 4 2 0 2 2 4 2 1 0 1 3 2 3 1 0 2 7 1 2 4 3 5 7
25 23 22 21 19 17 15 13 12 9 7 3 2 2 3 5 7 3 3 3 4 3 3 3 1 0 3 2 2 3 4 3 2 1 2 3 2 3 2 0 4 2 2 2 2 6 3
26 24 23 22 20 18 17 15 13 10 10 4 2 3 3 3 4 5 4 6 5 3 2 2 2 1 3 2 2 4 4 3 3 5 5 2 1 4 3 3 9 5 3 2 2 7 4
26 24 23 22 20 20 19 17 15 13 12 4 1 4 4 3 4 5 5 5 3 3 4 3 2 0 2 2 3 3 3 3 1 3 6 7 6 4 3 2 9 6 4 6 6 2 3
29 13 19 15 17 17 16 15 14 12 13 8 2 2 3 2 3 0 4 3 5 6 5 2 2 3 4 3 1 1 3 1 3 4 1 3 6 5 9 7 3 5 3 4 1 3 3
Wind_Direction
32 28 18 14 10 7 7 360 355 347 340 333 325 325 319 316 315 314 316 320 330 331 328 328 322 340 360 36 298 280 320 318 349 159 214 202 147 170 173 245 261 232 282 291 235 267 278
29 22 12 6 9 4 1 1 357 348 341 330 326 322 319 315 312 314 316 319 334 336 326 327 333 345 49 44 251 293 306 309 1 145 36 185 228 165 128 198 242 342 310 274 283 248 260
19 20 6 4 7 1 358 358 354 351 345 333 330 326 317 313 311 311 313 316 325 326 331 332 337 9 36 244 249 317 321 349 2 122 114 345 17 213 163 213 211 146 282 293 251 216 246
19 11 8 2 0 358 355 354 354 348 346 339 329 329 321 314 311 310 310 311 311 307 337 335 332 58 270 259 306 318 340 11 35 63 72 41 73 85 334 340 184 194 134 219 254 169 229
12 9 359 0 356 353 352 353 350 348 345 339 331 326 327 321 314 308 306 308 301 283 291 309 52 32 317 323 330 308 292 308 76 45 46 53 23 42 315 359 54 338 164 191 267 178 138
6 2 357 356 355 351 350 351 348 346 345 341 336 330 325 323 317 309 306 290 304 348 49 88 36 29 327 299 303 315 287 251 207 114 106 88 37 357 304 250 240 196 163 245 163 185 57
355 358 356 353 352 348 348 349 347 346 345 343 341 334 326 323 317 314 342 25 22 355 47 143 275 239 283 289 249 300 274 330 8 199 251 184 149 217 187 219 283 252 193 191 244 160 98
350 352 352 352 350 348 347 346 346 345 344 344 341 336 332 329 326 313 86 87 142 185 355 215 242 257 256 282 310 294 122 13 12 318 310 3 280 272 239 219 204 163 127 247 3 96 90
346 343 345 347 348 347 345 344 344 344 343 343 343 335 333 339 329 38 81 141 238 168 96 300 235 244 262 166 276 279 81 287 285 357 353 137 277 312 31 26 22 46 116 193 153 131 45
341 339 340 343 344 345 344 342 341 340 339 341 344 336 334 327 62 225 48 170 59 89 71 303 351 304 165 233 293 224 213 140 331 315 343 300 307 344 17 61 21 75 338 216 138 89 157
337 335 336 338 340 342 341 341 340 337 337 339 342 339 338 50 151 84 123 110 67 55 50 271 293 246 264 99 303 333 89 49 318 301 78 282 336 358 13 345 30 250 312 133 104 76 81
328 328 328 331 334 336 337 337 337 335 336 337 339 335 336 30 50 343 83 74 47 45 275 332 293 347 17 9 289 308 32 23 252 332 344 289 276 5 290 290 222 271 73 48 57 87 42
311 321 322 325 328 330 333 334 336 337 335 338 333 329 17 115 197 131 80 51 34 97 297 304 324 350 351 293 331 33 9 14 33 38 351 333 336 309 59 339 357 52 51 10 4 10 220
294 307 313 318 321 325 331 334 335 337 335 339 332 16 353 44 123 112 54 52 69 257 257 337 325 317 316 19 335 5 33 8 8 70 71 79 346 353 348 95 277 16 121 145 205 192 266
281 288 300 308 314 320 328 332 334 335 336 338 346 11 40 339 115 59 74 50 198 197 274 315 317 61 323 337 289 48 49 284 272 15 86 24 282 322 262 212 141 163 42 180 109 79 50
269 269 285 298 306 312 321 329 333 335 337 341 87 65 338 106 102 62 73 215 214 226 163 117 302 91 280 302 359 22 323 203 261 117 129 339 322 192 293 216 229 246 147 80 1 150 264
261 260 274 286 294 302 312 324 332 336 339 352 58 51 269 88 70 54 124 225 237 235 176 162 246 292 246 279 236 280 250 282 233 313 165 62 98 293 10 347 15 9 20 53 134 145 174
255 251 265 272 280 292 303 317 327 338 342 48 93 27 324 44 40 18 153 194 213 212 169 292 265 212 245 232 270 270 277 226 179 182 267 214 151 268 253 339 55 162 173 114 115 285 284
252 253 257 260 269 278 292 307 322 335 17 65 99 228 352 98 96 306 275 267 226 184 203 187 261 217 171 256 272 221 228 133 67 21 5 15 302 342 343 4 7 336 269 101 86 70 218
242 243 253 252 260 267 274 290 312 325 338 110 86 6 330 57 97 154 203 248 256 211 225 188 229 107 318 252 217 289 270 154 163 163 139 98 241 194 203 227 206 289 200 165 137 90 261
239 238 239 242 248 255 263 275 297 319 334 117 50 237 189 268 295 222 172 215 227 249 232 202 232 201 184 294 269 234 274 320 143 113 104 106 251 207 260 250 237 240 236 217 198 208 173
230 236 231 230 237 241 246 260 279 311 116 91 158 149 51 235 289 167 207 242 209 230 167 234 220 186 179 209 229 298 196 219 250 11 91 25 272 355 289 141 181 266 245 229 227 243 260
224 225 226 227 228 230 233 241 256 281 155 159 247 20 108 251 125 121 224 230 247 173 206 195 201 181 216 224 181 220 262 310 251 207 266 182 153 33 272 356 317 298 229 186 195 196 169
224 222 217 219 224 225 224 226 239 254 192 145 197 114 112 251 177 201 216 199 232 228 254 216 162 179 235 122 193 135 178 235 227 241 156 157 124 125 271 340 359 249 145 181 204 229 212
219 220 216 213 217 219 218 218 220 236 201 128 182 145 142 227 198 269 226 211 149 346 249 234 200 190 162 54 45 344 335 4 207 79 177 175 131 231 272 257 287 4 208 172 172 288 197
208 211 212 213 210 210 211 210 209 218 207 129 207 145 126 128 239 129 160 175 183 219 316 233 347 254 66 87 115 211 231 227 227 213 92 85 89 136 145 189 257 265 198 165 150 297 182
204 204 211 211 209 204 204 203 202 199 212 162 208 176 106 161 242 142 185 183 144 133 203 285 176 106 48 114 177 193 244 190 226 196 178 163 105 192 185 246 286 239 171 149 101 238 155
200 203 206 210 205 202 197 199 195 184 199 169 176 195 140 182 264 185 182 154 122 140 158 203 83 275 75 169 175 224 205 237 263 198 180 173 154 200 118 185 280 153 86 170 224 231 190
18 216 194 179 173 157 154 155 156 168 184 175 175 197 138 167 237 247 255 254 169 183 146 191 228 158 172 107 220 122 246 231 198 257 43 243 200 188 190 217 279 216 220 241 162 253 238